{"data":{"norad_id":64743,"epoch":"2026-09-20T13:16:03.286848Z","epoch_age_seconds":123367,"freshness":"FRESH","line1":"1 64743U 25144V   26263.55281582  .00016938  00000+0  51129-3 0  9992","line2":"2 64743  53.1641 353.2727 0001528  92.1622 267.9556 15.34400998 69584","mean_motion":15.34400998,"eccentricity":0.0001528,"inclination_deg":53.1641,"raan_deg":353.2727,"arg_perigee_deg":92.1622,"mean_anomaly_deg":267.9556,"bstar":0.00051129,"rev_number":6958,"period_min":93.847697041188,"perigee_km":461.65499400694,"apogee_km":463.74555387785,"semimajor_km":6840.8372739424,"source":"CELESTRAK","updated_at":"2026-09-21T09:00:35.412909Z"}}